Location: La Tine
(46.4708°N, 7.0525°E)
Time: 08:08:39
(UTC+00:00)

Cosmos 1833 Rocket - Pass Details

Date: 18 January 2021
Orbit: 833 x 839 km, 71.0° (Epoch: 24 February)

Event Time Altitude Azimuth Distance (km) Brightness Sun altitude
Rises 20:04:55 0° 332° (NNW) 3,391 6.3 -38.9°
Reaches altitude 10° 20:07:22 10° 331° (NNW) 2,453 5.5 -39.3°
Enters shadow 20:08:16 15° 331° (NNW) 2,117 5.1 -39.5°
